| time (UTC) | temp C | wind direction | speed KPH | gust KPH | rain 1hr cm | rain 24hr cm | rain mn cm | humidity % | barometer mb |
| 20260503203111 | 17 | 277 | 11.3 | 24.1 | 0.00 | 0.00 | 0.00 | 51 | 1017.5 |
| 20260503201556 | 17 | 209 | 16.1 | 25.7 | 0.00 | 0.00 | 0.00 | 55 | 1017.8 |
| 20260503200105 | 17 | 200 | 8.0 | 24.1 | 0.00 | 0.00 | 0.00 | 52 | 1018.1 |
| 20260503194557 | 17 | 182 | 11.3 | 25.7 | 0.00 | 0.00 | 0.00 | 52 | 1018.2 |
| 20260503193056 | 16 | 291 | 6.4 | 20.9 | 0.00 | 0.00 | 0.00 | 51 | 1018.3 |
| 20260503191558 | 16 | 200 | 8.0 | 22.5 | 0.00 | 0.00 | 0.00 | 48 | 1018.6 |
| 20260503190108 | 16 | 247 | 3.2 | 19.3 | 0.00 | 0.00 | 0.00 | 51 | 1018.8 |
| 20260503184602 | 16 | 259 | 3.2 | 16.1 | 0.00 | 0.00 | 0.00 | 48 | 1019.2 |
| 20260503183101 | 15 | 277 | 4.8 | 20.9 | 0.00 | 0.00 | 0.00 | 52 | 1019.2 |
| 20260503181601 | 16 | 255 | 3.2 | 16.1 | 0.00 | 0.00 | 0.00 | 46 | 1019.5 |
| 20260503180059 | 15 | 308 | 8.0 | 19.3 | 0.00 | 0.00 | 0.00 | 49 | 1019.7 |
| 20260503174603 | 15 | 294 | 11.3 | 19.3 | 0.00 | 0.00 | 0.00 | 49 | 1019.8 |
| 20260503173100 | 15 | 0 | 4.8 | 19.3 | 0.00 | 0.00 | 0.00 | 45 | 1020.1 |
| 20260503171604 | 15 | 219 | 4.8 | 16.1 | 0.00 | 0.00 | 0.00 | 46 | 1020.4 |
| 20260503100109 | 4 | 106 | 4.8 | 6.4 | 0.00 | 0.00 | 0.00 | 90 | 1020.0 |
| 20260503081602 | 6 | 97 | 1.6 | 6.4 | 0.00 | 0.00 | 0.00 | 83 | 1019.8 |
| 20260503071601 | 7 | 14 | 6.4 | 11.3 | 0.00 | 0.00 | 0.00 | 80 | 1019.3 |
| 20260503060118 | 7 | 69 | 3.2 | 6.4 | 0.00 | 0.00 | 0.00 | 84 | 1018.9 |
| 20260503054611 | 8 | 0 | 0.0 | 6.4 | 0.00 | 0.00 | 0.00 | 83 | 1018.8 |
| 20260503053058 | 9 | 0 | 0.0 | 8.0 | 0.00 | 0.00 | 0.00 | 78 | 1018.9 |
| 20260503051557 | 9 | 5 | 6.4 | 12.9 | 0.00 | 0.00 | 0.00 | 78 | 1018.9 |
| 20260503050058 | 9 | 342 | 6.4 | 14.5 | 0.00 | 0.00 | 0.00 | 77 | 1018.8 |
| 20260503044600 | 9 | 338 | 8.0 | 14.5 | 0.00 | 0.00 | 0.00 | 79 | 1018.8 |
| 20260503043058 | 9 | 337 | 6.4 | 12.9 | 0.00 | 0.00 | 0.00 | 77 | 1018.8 |
| 20260503041559 | 9 | 5 | 6.4 | 14.5 | 0.00 | 0.00 | 0.00 | 74 | 1018.6 |
| 20260503040105 | 10 | 355 | 9.7 | 17.7 | 0.00 | 0.00 | 0.00 | 72 | 1018.4 |
| 20260503034607 | 10 | 5 | 6.4 | 14.5 | 0.00 | 0.00 | 0.00 | 74 | 1018.4 |
| 20260503033106 | 10 | 9 | 11.3 | 20.9 | 0.00 | 0.00 | 0.00 | 71 | 1018.4 |
| 20260503031558 | 10 | 355 | 11.3 | 16.1 | 0.00 | 0.00 | 0.00 | 72 | 1018.3 |
| 20260503030059 | 10 | 355 | 9.7 | 16.1 | 0.00 | 0.00 | 0.00 | 70 | 1018.2 |
| 20260503024559 | 10 | 13 | 6.4 | 19.3 | 0.00 | 0.00 | 0.00 | 69 | 1018.5 |
| 20260503023107 | 10 | 9 | 11.3 | 20.9 | 0.00 | 0.00 | 0.00 | 69 | 1018.3 |
| 20260503021559 | 11 | 348 | 11.3 | 17.7 | 0.00 | 0.00 | 0.00 | 69 | 1018.0 |
| 20260503020100 | 11 | 5 | 9.7 | 14.5 | 0.00 | 0.00 | 0.00 | 70 | 1017.8 |
| 20260503014608 | 11 | 327 | 8.0 | 17.7 | 0.00 | 0.00 | 0.00 | 65 | 1017.7 |
| 20260503013058 | 11 | 316 | 6.4 | 12.9 | 0.00 | 0.00 | 0.00 | 68 | 1017.5 |
| 20260503011604 | 11 | 304 | 3.2 | 6.4 | 0.00 | 0.00 | 0.00 | 65 | 1017.4 |
| 20260503010056 | 11 | 5 | 3.2 | 8.0 | 0.00 | 0.00 | 0.00 | 68 | 1017.2 |
| 20260503004605 | 11 | 5 | 4.8 | 9.7 | 0.00 | 0.00 | 0.00 | 65 | 1017.1 |
| 20260503003103 | 12 | 9 | 6.4 | 11.3 | 0.00 | 0.00 | 0.00 | 64 | 1017.0 |
| 20260503001618 | 12 | 360 | 6.4 | 12.9 | 0.00 | 0.00 | 0.00 | 64 | 1016.8 |
| 20260503000121 | 12 | 14 | 9.7 | 14.5 | 0.00 | 0.00 | 0.00 | 61 | 1016.5 |
| 20260502234606 | 12 | 9 | 12.9 | 17.7 | 0.00 | 0.00 | 0.00 | 60 | 1016.4 |
| 20260502233100 | 12 | 5 | 12.9 | 20.9 | 0.00 | 0.00 | 0.00 | 61 | 1016.2 |
| 20260502231610 | 12 | 19 | 11.3 | 16.1 | 0.00 | 0.00 | 0.00 | 63 | 1016.1 |
| 20260502230057 | 12 | 31 | 11.3 | 19.3 | 0.00 | 0.00 | 0.00 | 65 | 1016.2 |
| 20260502224600 | 12 | 40 | 11.3 | 19.3 | 0.00 | 0.00 | 0.00 | 64 | 1016.0 |
| 20260502223101 | 12 | 5 | 11.3 | 17.7 | 0.00 | 0.00 | 0.00 | 62 | 1016.2 |
| 20260502221600 | 12 | 5 | 12.9 | 17.7 | 0.00 | 0.00 | 0.00 | 59 | 1016.0 |
| 20260502220100 | 13 | 360 | 9.7 | 16.1 | 0.00 | 0.00 | 0.00 | 61 | 1016.0 |
| 20260502214556 | 12 | 330 | 11.3 | 22.5 | 0.00 | 0.00 | 0.00 | 62 | 1015.9 |
| 20260502213109 | 12 | 360 | 16.1 | 24.1 | 0.00 | 0.00 | 0.00 | 63 | 1016.0 |
| 20260502211555 | 12 | 19 | 3.2 | 17.7 | 0.00 | 0.00 | 0.00 | 66 | 1016.0 |
| 20260502210056 | 12 | 324 | 9.7 | 27.4 | 0.00 | 0.00 | 0.00 | 68 | 1016.3 |
| 20260502204616 | 12 | 309 | 19.3 | 41.8 | 0.00 | 0.00 | 0.00 | 63 | 1016.4 |